Regional Weather Roundup
Issued by NWS Charleston, WV

Home | Current Version | Previous Version | Text Only | Print | Product List | Glossary Off
Versions: 1 2 3 4 5 6 7 8 9 10 11 12 13 14 15 16 17 18 19 20 21 22 23 24 25 26 27

000
ASUS41 KRLX 120710
RWRRLX
West Virginia Regional Weather Roundup
National Weather Service Charleston WV
200 AM EST TUE DEC 12 2017

Note: "fair" indicates few or no clouds below 12,000 feet with no
significant weather and/or obstructions to visibility.

WVZ003-120800-
Northern Panhandle of West Virginia

CITY           SKY/WX    TMP DP  RH WIND       PRES   REMARKS
WHEELING       CLOUDY    40  24  53 SW13      29.56F
$$

WVZ009-120800-
Northwest West Virginia

CITY           SKY/WX    TMP DP  RH WIND       PRES   REMARKS
PARKERSBURG    CLOUDY    44  27  51 W12G20    29.69R
$$

WVZ006-120800-
Western West Virginia

CITY           SKY/WX    TMP DP  RH WIND       PRES   REMARKS
HUNTINGTON     CLEAR     46  26  45 W12G18    29.72R
$$

WVZ015-120800-
West Central West Virginia

CITY           SKY/WX    TMP DP  RH WIND       PRES   REMARKS
CHARLESTON     CLOUDY    50  28  42 W16G28    29.69S
$$

WVZ022-031-120800-
North Central West Virginia

CITY           SKY/WX    TMP DP  RH WIND       PRES   REMARKS
CLARKSBURG     CLOUDY    48  27  44 SW13      29.63F
MORGANTOWN     MOCLDY    47  26  44 SW12G20   29.61F
$$

WVZ025-035-042-045-120800-
Southern West Virginia

CITY           SKY/WX    TMP DP  RH WIND       PRES   REMARKS
BECKLEY        CLEAR     42  25  50 SW8       29.69F
LOGAN          CLOUDY    48  28  46 W12G28    29.71S
BLUEFIELD      CLOUDY    42  26  53 W16G28    29.71F
LEWISBURG      PTCLDY    29  25  85 CALM      29.70F
$$

WVZ047-120800-
Northern Mountains of West Virginia

CITY           SKY/WX    TMP DP  RH WIND       PRES   REMARKS
ELKINS         CLOUDY    43  26  51 SW8       29.64F
$$

WVZ052-120800-
Eastern Panhandle of West Virginia

CITY           SKY/WX    TMP DP  RH WIND       PRES   REMARKS
MARTINSBURG    CLOUDY    37  27  67 CALM      29.68F
PETERSBURG     CLOUDY    30  25  81 CALM      29.65F
$$




USA.gov is the U.S. government's official web portal to all federal, state and local government web resources and services.